KJ7IVE-13 Weather Reports


Display with metric or nautical units.
time (UTC)temp
F
wind
direction
speed
MPH
gust
MPH
rain 1hr
in
rain 24hr
in
rain mn
in
humidity
%
barometer
mb
20260508223730 75 200 3.0 3.0 0.00 0.00 0.00 10 1016.2
20260508223227 75 203 4.0 5.0 0.00 0.00 0.00 10 1016.0
20260508222724 74 213 7.0 9.0 0.00 0.00 0.00 10 1016.1
20260508222222 76 246 4.0 5.0 0.00 0.00 0.00 10 1016.4
20260508221718 76 238 3.0 3.0 0.00 0.00 0.00 10 1016.4
20260508221214 76 248 3.0 3.0 0.00 0.00 0.00 10 1016.4
20260508220710 76 239 5.0 6.0 0.00 0.00 0.00 10 1016.5
20260508220207 75 218 5.0 6.0 0.00 0.00 0.00 10 1016.7
20260508215703 74 243 9.0 11.0 0.00 0.00 0.00 10 1016.6
20260508215200 76 183 5.0 8.0 0.00 0.00 0.00 10 1016.5
20260508214657 75 297 4.0 5.0 0.00 0.00 0.00 10 1016.6
20260508214154 74 301 4.0 6.0 0.00 0.00 0.00 10 1016.7
20260508213651 75 217 4.0 6.0 0.00 0.00 0.00 10 1017.0
20260508213147 74 267 9.0 11.0 0.00 0.00 0.00 10 1016.9
20260508212643 74 233 3.0 3.0 0.00 0.00 0.00 10 1017.0
20260508212140 73 239 6.0 7.0 0.00 0.00 0.00 10 1017.2
20260508211635 74 228 9.0 10.0 0.00 0.00 0.00 10 1017.0
20260508211132 74 250 5.0 6.0 0.00 0.00 0.00 10 1017.4
20260508210629 73 306 5.0 7.0 0.00 0.00 0.00 10 1017.2
20260508210127 75 250 8.0 10.0 0.00 0.00 0.00 10 1017.4
20260508205623 74 244 3.0 3.0 0.00 0.00 0.00 10 1017.2
20260508205120 72 269 5.0 6.0 0.00 0.00 0.00 10 1017.4
20260508204616 72 243 4.0 6.0 0.00 0.00 0.00 10 1017.5
20260508204112 73 224 5.0 7.0 0.00 0.00 0.00 10 1017.3
20260508203608 73 205 2.0 2.0 0.00 0.00 0.00 10 1017.3
20260508203104 72 217 5.0 7.0 0.00 0.00 0.00 10 1017.4
20260508202601 72 230 10.0 11.0 0.00 0.00 0.00 10 1017.5
20260508202058 73 238 9.0 10.0 0.00 0.00 0.00 10 1017.6
20260508201555 73 207 8.0 9.0 0.00 0.00 0.00 10 1017.5
20260508201051 73 236 8.0 10.0 0.00 0.00 0.00 10 1017.6
20260508200549 72 242 5.0 6.0 0.00 0.00 0.00 10 1018.0
20260508200044 72 209 5.0 7.0 0.00 0.00 0.00 10 1017.6
20260508195541 71 247 5.0 6.0 0.00 0.00 0.00 10 1017.8
20260508195038 71 242 7.0 9.0 0.00 0.00 0.00 10 1017.7
20260508194534 71 244 3.0 5.0 0.00 0.00 0.00 10 1017.8
20260508194032 72 217 2.0 2.0 0.00 0.00 0.00 10 1017.6
20260508193528 72 240 8.0 9.0 0.00 0.00 0.00 10 1017.8
20260508193025 71 246 7.0 9.0 0.00 0.00 0.00 10 1018.0
20260508192521 71 301 4.0 6.0 0.00 0.00 0.00 10 1018.0
20260508192019 70 258 3.0 3.0 0.00 0.00 0.00 10 1017.8
20260508191515 71 244 9.0 10.0 0.00 0.00 0.00 10 1018.1
20260508191012 71 246 6.0 7.0 0.00 0.00 0.00 10 1018.2
20260508190509 70 249 9.0 11.0 0.00 0.00 0.00 10 1018.2
20260508190005 70 245 7.0 9.0 0.00 0.00 0.00 10 1018.2
20260508185503 69 218 6.0 7.0 0.00 0.00 0.00 10 1018.2
20260508185000 69 223 4.0 6.0 0.00 0.00 0.00 10 1018.2
20260508184458 69 231 7.0 10.0 0.00 0.00 0.00 10 1018.3
20260508183954 69 238 8.0 9.0 0.00 0.00 0.00 10 1018.4
20260508183451 69 213 6.0 8.0 0.00 0.00 0.00 10 1018.3
20260508182946 70 229 9.0 10.0 0.00 0.00 0.00 10 1018.2
20260508182444 69 232 9.0 9.0 0.00 0.00 0.00 10 1018.4
20260508181943 70 260 4.0 5.0 0.00 0.00 0.00 10 1018.4
20260508181440 70 206 1.0 3.0 0.00 0.00 0.00 10 1018.3
20260508180939 70 250 8.0 9.0 0.00 0.00 0.00 10 1018.4
20260508180435 71 255 7.0 8.0 0.00 0.00 0.00 10 1018.6
20260508175931 69 153 2.0 2.0 0.00 0.00 0.00 10 1018.5
20260508175427 69 212 6.0 7.0 0.00 0.00 0.00 10 1018.6
20260508174925 69 234 3.0 5.0 0.00 0.00 0.00 10 1018.7
20260508174423 70 191 4.0 6.0 0.00 0.00 0.00 10 1018.5
20260508173919 69 230 3.0 6.0 0.00 0.00 0.00 10 1018.6
20260508173416 69 199 3.0 5.0 0.00 0.00 0.00 10 1018.5
20260508172912 69 269 4.0 5.0 0.00 0.00 0.00 10 1018.7
20260508172410 68 224 3.0 5.0 0.00 0.00 0.00 10 1018.5
20260508171905 68 185 2.0 3.0 0.00 0.00 0.00 10 1018.7
20260508171402 68 241 2.0 2.0 0.00 0.00 0.00 10 1018.5
20260508170859 67 212 5.0 6.0 0.00 0.00 0.00 10 1018.6
20260508170357 66 226 2.0 3.0 0.00 0.00 0.00 10 1018.9
20260508165853 67 271 4.0 5.0 0.00 0.00 0.00 10 1018.9
20260508165351 66 222 3.0 5.0 0.00 0.00 0.00 10 1018.5
20260508164846 66 230 7.0 8.0 0.00 0.00 0.00 10 1018.5
20260508164343 66 237 4.0 6.0 0.00 0.00 0.00 10 1018.7
20260508163841 66 236 4.0 5.0 0.00 0.00 0.00 10 1018.7
20260508163339 67 230 7.0 8.0 0.00 0.00 0.00 10 1018.7
20260508162834 67 224 3.0 3.0 0.00 0.00 0.00 10 1018.7
20260508162331 66 214 4.0 5.0 0.00 0.00 0.00 10 1018.5
20260508161823 66 249 3.0 3.0 0.00 0.00 0.00 10 1018.5
20260508161320 66 256 3.0 5.0 0.00 0.00 0.00 10 1018.4
20260508160818 65 171 3.0 3.0 0.00 0.00 0.00 10 1018.4
20260508160316 66 217 4.0 5.0 0.00 0.00 0.00 10 1018.5
20260508155812 66 261 5.0 6.0 0.00 0.00 0.00 10 1018.5
20260508155310 66 239 2.0 3.0 0.00 0.00 0.00 10 1018.5
20260508154806 65 212 2.0 2.0 0.00 0.00 0.00 10 1018.5
20260508154304 65 222 2.0 3.0 0.00 0.00 0.00 10 1018.6
20260508153800 66 235 2.0 2.0 0.00 0.00 0.00 10 1018.3
20260508153258 65 221 3.0 3.0 0.00 0.00 0.00 10 1018.1
20260508152754 65 152 1.0 1.0 0.00 0.00 0.00 10 1018.1
20260508152250 64 184 1.0 2.0 0.00 0.00 0.00 10 1018.2
20260508151746 64 179 2.0 2.0 0.00 0.00 0.00 10 1018.2
20260508151244 64 203 2.0 2.0 0.00 0.00 0.00 10 1018.5
20260508150740 64 177 3.0 5.0 0.00 0.00 0.00 10 1018.4
20260508150237 63 185 1.0 2.0 0.00 0.00 0.00 10 1018.2
20260508145733 64 152 2.0 2.0 0.00 0.00 0.00 10 1018.3
20260508145229 63 171 1.0 1.0 0.00 0.00 0.00 10 1018.3
20260508144726 63 160 1.0 1.0 0.00 0.00 0.00 10 1018.1
20260508144224 62 171 0.0 1.0 0.00 0.00 0.00 10 1018.3
20260508143721 62 162 1.0 2.0 0.00 0.00 0.00 10 1018.1
20260508143218 62 152 1.0 1.0 0.00 0.00 0.00 10 1018.1
20260508142714 60 171 0.0 0.0 0.00 0.00 0.00 10 1017.8
20260508142211 60 173 1.0 1.0 0.00 0.00 0.00 10 1018.1
20260508141708 60 176 0.0 0.0 0.00 0.00 0.00 10 1018.1
20260508141206 58 178 0.0 1.0 0.00 0.00 0.00 10 1018.1
20260508140703 56 179 0.0 1.0 0.00 0.00 0.00 10 1018.1
20260508140159 55 175 0.0 0.0 0.00 0.00 0.00 10 1017.8
20260508135656 54 165 1.0 1.0 0.00 0.00 0.00 10 1018.1
20260508135151 53 163 1.0 2.0 0.00 0.00 0.00 10 1017.8
20260508134648 52 171 1.0 2.0 0.00 0.00 0.00 10 1017.5
20260508134145 51 152 2.0 2.0 0.00 0.00 0.00 10 1017.7
20260508133642 50 122 1.0 1.0 0.00 0.00 0.00 10 1017.8
20260508133139 50 182 1.0 1.0 0.00 0.00 0.00 10 1017.6
20260508132637 49 213 1.0 2.0 0.00 0.00 0.00 10 1017.6
20260508132134 49 202 0.0 0.0 0.00 0.00 0.00 10 1017.5
20260508131629 48 195 0.0 0.0 0.00 0.00 0.00 10 1017.0
20260508131126 47 205 0.0 0.0 0.00 0.00 0.00 10 1017.4
20260508130622 48 227 3.0 3.0 0.00 0.00 0.00 10 1016.9
20260508130119 49 169 0.0 0.0 0.00 0.00 0.00 10 1017.2
20260508125614 48 168 1.0 1.0 0.00 0.00 0.00 10 1017.2
20260508125112 48 194 0.0 1.0 0.00 0.00 0.00 10 1017.0
20260508124610 49 236 2.0 2.0 0.00 0.00 0.00 10 1016.9
20260508124106 49 179 0.0 0.0 0.00 0.00 0.00 10 1017.0
20260508123605 49 178 0.0 0.0 0.00 0.00 0.00 10 1017.0
20260508123102 49 141 1.0 1.0 0.00 0.00 0.00 10 1016.8
20260508122558 49 244 1.0 1.0 0.00 0.00 0.00 10 1017.0
20260508122055 51 181 0.0 0.0 0.00 0.00 0.00 10 1016.7
20260508121554 50 163 2.0 2.0 0.00 0.00 0.00 10 1016.7
20260508121051 50 217 3.0 3.0 0.00 0.00 0.00 10 1016.7
20260508120548 51 200 2.0 2.0 0.00 0.00 0.00 10 1016.7
20260508120047 51 158 1.0 1.0 0.00 0.00 0.00 10 1016.7
20260508115544 51 153 2.0 2.0 0.00 0.00 0.00 10 1016.4
20260508115040 52 130 1.0 1.0 0.00 0.00 0.00 10 1016.1
20260508114537 51 131 1.0 2.0 0.00 0.00 0.00 10 1016.4
20260508114033 51 167 2.0 2.0 0.00 0.00 0.00 10 1016.4
20260508113531 52 171 1.0 2.0 0.00 0.00 0.00 10 1016.5
20260508113029 51 177 0.0 0.0 0.00 0.00 0.00 10 1016.4
20260508112525 52 176 0.0 0.0 0.00 0.00 0.00 10 1016.7
20260508112022 52 172 1.0 2.0 0.00 0.00 0.00 10 1016.5
20260508111519 53 139 3.0 3.0 0.00 0.00 0.00 10 1016.4
20260508111016 51 120 3.0 3.0 0.00 0.00 0.00 10 1016.4
20260508110514 50 168 1.0 1.0 0.00 0.00 0.00 10 1016.4
20260508110009 50 197 0.0 0.0 0.00 0.00 0.00 10 1016.6
20260508105505 49 205 1.0 1.0 0.00 0.00 0.00 10 1016.4
20260508105002 50 201 1.0 1.0 0.00 0.00 0.00 10 1016.1
20260508104500 51 195 0.0 0.0 0.00 0.00 0.00 10 1016.1
20260508103956 51 191 0.0 0.0 0.00 0.00 0.00 10 1016.1
20260508103453 51 185 1.0 1.0 0.00 0.00 0.00 10 1016.1
20260508102950 51 186 0.0 0.0 0.00 0.00 0.00 10 1016.0
20260508102448 51 196 0.0 1.0 0.00 0.00 0.00 10 1016.1
20260508101945 51 173 1.0 2.0 0.00 0.00 0.00 10 1016.2
20260508101443 51 166 1.0 1.0 0.00 0.00 0.00 10 1016.0
20260508100940 50 147 3.0 3.0 0.00 0.00 0.00 10 1015.9
20260508100438 51 149 3.0 3.0 0.00 0.00 0.00 10 1016.0
20260508095934 50 172 1.0 1.0 0.00 0.00 0.00 10 1015.9
20260508095432 51 200 0.0 1.0 0.00 0.00 0.00 10 1016.0
20260508094928 51 170 0.0 0.0 0.00 0.00 0.00 10 1015.8
20260508094425 51 152 1.0 2.0 0.00 0.00 0.00 10 1016.1
20260508093922 51 154 2.0 2.0 0.00 0.00 0.00 10 1015.9
20260508093420 51 151 2.0 2.0 0.00 0.00 0.00 10 1015.8
20260508092917 51 134 2.0 2.0 0.00 0.00 0.00 10 1016.0
20260508092415 51 117 2.0 2.0 0.00 0.00 0.00 10 1016.0
20260508091913 51 131 2.0 2.0 0.00 0.00 0.00 10 1016.0
20260508091409 51 131 2.0 2.0 0.00 0.00 0.00 10 1015.9
20260508090907 51 182 0.0 1.0 0.00 0.00 0.00 10 1016.0
20260508090405 52 184 0.0 0.0 0.00 0.00 0.00 10 1015.9
20260508085901 52 176 0.0 0.0 0.00 0.00 0.00 10 1016.0
20260508085357 52 127 1.0 1.0 0.00 0.00 0.00 10 1015.8
20260508084854 52 137 1.0 1.0 0.00 0.00 0.00 10 1016.2
20260508084351 52 172 1.0 1.0 0.00 0.00 0.00 10 1016.2
20260508083849 52 174 0.0 1.0 0.00 0.00 0.00 10 1016.1
20260508083346 52 177 1.0 1.0 0.00 0.00 0.00 10 1016.0
20260508082845 52 183 0.0 1.0 0.00 0.00 0.00 10 1015.8
20260508082343 52 194 0.0 0.0 0.00 0.00 0.00 10 1016.0
20260508081841 53 181 0.0 0.0 0.00 0.00 0.00 10 1016.2
20260508081337 53 192 0.0 0.0 0.00 0.00 0.00 10 1016.0
20260508080834 54 158 0.0 0.0 0.00 0.00 0.00 10 1015.8
20260508080332 54 196 0.0 1.0 0.00 0.00 0.00 10 1016.0
20260508075829 55 132 1.0 1.0 0.00 0.00 0.00 10 1015.9
20260508075325 55 160 1.0 1.0 0.00 0.00 0.00 10 1015.8
20260508074823 55 157 1.0 1.0 0.00 0.00 0.00 10 1015.9
20260508074320 56 141 1.0 1.0 0.00 0.00 0.00 10 1015.9
20260508073817 56 110 3.0 3.0 0.00 0.00 0.00 10 1015.9
20260508073315 56 108 2.0 2.0 0.00 0.00 0.00 10 1015.8
20260508072811 56 122 2.0 2.0 0.00 0.00 0.00 10 1015.8
20260508072308 56 130 1.0 2.0 0.00 0.00 0.00 10 1015.8
20260508071805 56 109 3.0 3.0 0.00 0.00 0.00 10 1016.0
20260508071304 56 101 3.0 3.0 0.00 0.00 0.00 10 1016.0
20260508070801 55 127 2.0 2.0 0.00 0.00 0.00 10 1015.8
20260508070300 55 133 2.0 2.0 0.00 0.00 0.00 10 1015.8
20260508065756 55 122 2.0 2.0 0.00 0.00 0.00 10 1015.8
20260508065254 56 127 2.0 2.0 0.00 0.00 0.00 10 1016.0
20260508064752 56 152 0.0 1.0 0.00 0.00 0.00 10 1015.7
20260508064250 55 155 1.0 1.0 0.00 0.00 0.00 10 1015.7
20260508063746 55 167 1.0 1.0 0.00 0.00 0.00 10 1015.7
20260508063245 56 154 1.0 1.0 0.00 0.00 0.00 10 1015.6
20260508062742 56 124 2.0 2.0 0.00 0.00 0.00 10 1015.8
20260508062239 56 151 1.0 1.0 0.00 0.00 0.00 10 1015.6
20260508061736 56 166 1.0 1.0 0.00 0.00 0.00 10 1015.7
20260508061233 56 135 1.0 2.0 0.00 0.00 0.00 10 1015.8
20260508060729 56 141 2.0 2.0 0.00 0.00 0.00 10 1015.6
20260508060227 56 166 1.0 1.0 0.00 0.00 0.00 10 1015.7
20260508055723 56 207 0.0 0.0 0.00 0.00 0.00 10 1015.3
20260508055220 56 209 1.0 1.0 0.00 0.00 0.00 10 1015.8
20260508054716 57 202 0.0 0.0 0.00 0.00 0.00 10 1015.8
20260508054214 57 203 1.0 2.0 0.00 0.00 0.00 10 1015.7
20260508053711 58 204 0.0 1.0 0.00 0.00 0.00 10 1015.5
20260508053208 59 180 0.0 0.0 0.00 0.00 0.00 10 1015.6
20260508052705 58 106 2.0 2.0 0.00 0.00 0.00 10 1015.6
20260508052202 60 322 10.0 11.0 0.00 0.00 0.00 10 1015.8
20260508051658 62 168 0.0 0.0 0.00 0.00 0.00 10 1015.7
20260508051154 63 142 1.0 1.0 0.00 0.00 0.00 10 1015.5
20260508050650 63 112 2.0 2.0 0.00 0.00 0.00 10 1015.6
20260508050148 63 105 2.0 2.0 0.00 0.00 0.00 10 1015.6
20260508045643 62 87 2.0 2.0 0.00 0.00 0.00 10 1015.6
20260508045142 61 125 3.0 3.0 0.00 0.00 0.00 10 1015.3
20260508044639 61 67 6.0 7.0 0.00 0.00 0.00 10 1015.7
20260508044134 61 63 6.0 7.0 0.00 0.00 0.00 10 1015.3
20260508043631 61 46 10.0 10.0 0.00 0.00 0.00 10 1015.6
20260508043129 61 179 1.0 2.0 0.00 0.00 0.00 10 1015.1
20260508042625 61 176 0.0 0.0 0.00 0.00 0.00 10 1015.0
20260508042123 62 175 1.0 1.0 0.00 0.00 0.00 10 1015.2
20260508041619 62 168 3.0 3.0 0.00 0.00 0.00 10 1015.0
20260508041116 63 167 1.0 2.0 0.00 0.00 0.00 10 1014.9
20260508040612 63 152 2.0 3.0 0.00 0.00 0.00 10 1015.0
20260508040110 63 146 4.0 5.0 0.00 0.00 0.00 10 1014.9
20260508035607 63 139 4.0 5.0 0.00 0.00 0.00 10 1014.9
20260508035104 64 139 2.0 2.0 0.00 0.00 0.00 10 1015.0
20260508034601 64 153 1.0 2.0 0.00 0.00 0.00 10 1014.9
20260508034058 64 118 3.0 5.0 0.00 0.00 0.00 10 1014.9
20260508033556 65 140 4.0 5.0 0.00 0.00 0.00 10 1014.8
20260508033054 65 169 1.0 2.0 0.00 0.00 0.00 10 1014.7
20260508032550 65 171 2.0 2.0 0.00 0.00 0.00 10 1014.8
20260508032048 66 174 2.0 2.0 0.00 0.00 0.00 10 1014.3
20260508031545 67 172 1.0 1.0 0.00 0.00 0.00 10 1014.4
20260508031040 67 172 3.0 3.0 0.00 0.00 0.00 10 1014.5
20260508030537 67 172 2.0 2.0 0.00 0.00 0.00 10 1014.3
20260508030035 68 171 1.0 2.0 0.00 0.00 0.00 10 1014.4
20260508025536 68 169 3.0 3.0 0.00 0.00 0.00 10 1014.7
20260508025033 69 181 1.0 2.0 0.00 0.00 0.00 10 1014.3
20260508024529 70 186 1.0 2.0 0.00 0.00 0.00 10 1014.3
20260508024026 71 196 1.0 2.0 0.00 0.00 0.00 10 1014.7
20260508023523 71 210 1.0 1.0 0.00 0.00 0.00 10 1014.4
20260508023020 71 211 3.0 3.0 0.00 0.00 0.00 10 1014.2
20260508022516 72 216 1.0 2.0 0.00 0.00 0.00 10 1014.5
20260508022013 72 223 3.0 3.0 0.00 0.00 0.00 10 1014.1
20260508021509 73 219 1.0 1.0 0.00 0.00 0.00 10 1014.4
20260508021005 73 216 2.0 2.0 0.00 0.00 0.00 10 1014.2
20260508020503 73 205 1.0 1.0 0.00 0.00 0.00 10 1014.3
20260508020000 74 204 0.0 0.0 0.00 0.00 0.00 10 1014.2
20260508015458 75 204 0.0 0.0 0.00 0.00 0.00 10 1014.5
20260508014954 74 213 1.0 1.0 0.00 0.00 0.00 10 1014.3
20260508014451 75 222 1.0 1.0 0.00 0.00 0.00 10 1014.4
20260508013947 75 216 1.0 2.0 0.00 0.00 0.00 10 1014.2
20260508013443 74 217 2.0 2.0 0.00 0.00 0.00 10 1014.3
20260508012941 74 249 3.0 3.0 0.00 0.00 0.00 10 1014.3
20260508012437 74 244 3.0 3.0 0.00 0.00 0.00 10 1014.4
20260508011935 74 243 4.0 5.0 0.00 0.00 0.00 10 1014.3
20260508011434 74 231 3.0 5.0 0.00 0.00 0.00 10 1014.4
20260508010930 74 229 4.0 5.0 0.00 0.00 0.00 10 1014.3
20260508010427 74 237 3.0 3.0 0.00 0.00 0.00 10 1014.5
20260508005924 74 246 4.0 5.0 0.00 0.00 0.00 10 1014.5
20260508005420 74 236 5.0 5.0 0.00 0.00 0.00 10 1014.5
20260508004917 74 234 9.0 10.0 0.00 0.00 0.00 10 1014.4
20260508004413 74 238 4.0 6.0 0.00 0.00 0.00 10 1014.5
20260508003910 75 253 4.0 5.0 0.00 0.00 0.00 10 1014.5
20260508003407 74 279 8.0 9.0 0.00 0.00 0.00 10 1014.5
20260508002904 75 214 6.0 7.0 0.00 0.00 0.00 10 1014.4
20260508002400 74 197 4.0 5.0 0.00 0.00 0.00 10 1014.7
20260508001856 75 252 5.0 6.0 0.00 0.00 0.00 10 1014.5
20260508001353 75 219 4.0 5.0 0.00 0.00 0.00 10 1014.5
20260508000849 75 188 4.0 6.0 0.00 0.00 0.00 10 1014.3
20260508000345 74 277 3.0 3.0 0.00 0.00 0.00 10 1014.4
20260507235842 75 224 6.0 7.0 0.00 0.00 0.00 10 1014.4
20260507235340 75 186 6.0 7.0 0.00 0.00 0.00 10 1014.5
20260507234837 75 217 6.0 7.0 0.00 0.00 0.00 10 1015.0
20260507234333 76 197 1.0 2.0 0.00 0.00 0.00 10 1015.0
20260507233830 75 220 3.0 3.0 0.00 0.00 0.00 10 1014.9
20260507233328 75 212 1.0 2.0 0.00 0.00 0.00 10 1015.1
20260507232826 76 228 4.0 5.0 0.00 0.00 0.00 10 1015.1
20260507232322 75 217 4.0 5.0 0.00 0.00 0.00 10 1015.0
20260507231819 73 142 3.0 3.0 0.00 0.00 0.00 10 1015.2
20260507231316 74 193 3.0 3.0 0.00 0.00 0.00 10 1015.2
20260507230812 75 193 4.0 6.0 0.00 0.00 0.00 10 1015.1
20260507230310 74 210 1.0 2.0 0.00 0.00 0.00 10 1015.3
20260507225809 74 212 5.0 7.0 0.00 0.00 0.00 10 1015.5
20260507225306 74 222 6.0 7.0 0.00 0.00 0.00 10 1015.6
20260507224802 76 198 0.0 1.0 0.00 0.00 0.00 10 1015.6
20260507224258 74 214 2.0 2.0 0.00 0.00 0.00 10 1015.5